STARLINK-37841

Last updated on Sun Aug 09 2026 00:02:04 GMT+0000 (Coordinated Universal Time)

1 69951U 26157J 26220.16301482 .00025315 00000+0 46142-3 0 9993 2 69951 53.1593 177.4577 0001142 86.5806 273.5334 15.49328818 4704
UTC large
Height (km)
Speed (km/s)
/
Latitude / Longitude
Inclination (degrees)
Orbital Period (minutes)
Azimuth
Elevation
Range (km)
Doppler Factor

Next 0 passes for location: London (51.5072 / 0.1276)

No passes found over London.
STARLINK-37841